Tracking 19164 objects as of 20-May-2018
HD Live streaming from Space Station
objects crossing your sky now

LEMUR 2 PETERG

Track LEMUR 2 PETERG now!
10-day predictions
LEMUR 2 PETERG is classified as:


NORAD ID: 42841
Int'l Code: 2017-042S
Perigee: 591.8 km
Apogee: 607.5 km
Inclination: 97.6 °
Period: 96.5 minutes
Semi major axis: 6970 km
RCS: Unknown
Launch date: July 14, 2017
Source: United States (US)
Launch site: TYURATAM MISSILE AND SPACE COMPLEX (TTMTR)
aabbcc
Your satellite tracking list
Your tracking list is empty




NASA's NSSDC Master Catalog

Two Line Element Set (TLE):
1 42841U 17042S   18140.54906329 +.00000642 +00000-0 +69082-4 0  9996
2 42841 097.5997 044.3191 0011299 291.3015 068.6997 14.91739111046240
Source of the keplerian elements: AFSPC